N0RWU Weather Reports


Display with metric or nautical units.
time (UTC)temp
F
wind
direction
speed
MPH
gust
MPH
rain 1hr
in
rain 24hr
in
rain mn
in
humidity
%
barometer
mb
20260510130107 56 276 1.0 1.0 0.00 0.00 0.00 43 1011.5
20260510125107 56 247 1.0 2.0 0.00 0.00 0.00 44 1011.4
20260510124107 54 276 2.0 2.0 0.00 0.00 0.00 44 1011.4
20260510122107 53 264 0.0 0.0 0.00 0.00 0.00 48 1011.2
20260510121107 50 288 0.0 0.0 0.00 0.00 0.00 50 1011.1
20260510120108 47 227 1.0 2.0 0.00 0.00 0.00 55 1011.0
20260510115107 43 264 0.0 1.0 0.00 0.00 0.00 62 1010.8
20260510114107 40 312 0.0 0.0 0.00 0.00 0.00 66 1010.8
20260510113108 38 330 0.0 0.0 0.00 0.00 0.00 70 1010.9
20260510112107 36 266 0.0 0.0 0.00 0.00 0.00 73 1010.8
20260510111107 35 274 0.0 0.0 0.00 0.00 0.00 74 1010.7
20260510110108 35 274 0.0 0.0 0.00 0.00 0.00 74 1010.4
20260510105107 35 314 0.0 0.0 0.00 0.00 0.00 74 1010.3
20260510103108 36 277 0.0 0.0 0.00 0.00 0.00 71 1010.3
20260510102107 37 277 0.0 0.0 0.00 0.00 0.00 69 1010.1
20260510101107 37 322 0.0 0.0 0.00 0.00 0.00 69 1010.0
20260510100107 37 324 0.0 0.0 0.00 0.00 0.00 68 1010.0
20260510095107 38 305 0.0 0.0 0.00 0.00 0.00 68 1010.2
20260510094108 38 11 0.0 0.0 0.00 0.00 0.00 65 1010.2
20260510093107 39 114 0.0 0.0 0.00 0.00 0.00 61 1010.2
20260510092107 40 98 0.0 0.0 0.00 0.00 0.00 61 1010.0
20260510091108 40 294 0.0 0.0 0.00 0.00 0.00 60 1010.0
20260510090107 39 308 0.0 0.0 0.00 0.00 0.00 61 1010.0
20260510085107 40 318 1.0 1.0 0.00 0.00 0.00 62 1009.8
20260510084107 41 222 0.0 0.0 0.00 0.00 0.00 57 1009.6
20260510083108 42 304 0.0 0.0 0.00 0.00 0.00 56 1009.5
20260510082107 42 302 1.0 2.0 0.00 0.00 0.00 54 1009.4
20260510081107 42 299 2.0 2.0 0.00 0.00 0.00 54 1009.4
20260510080107 43 283 1.0 2.0 0.00 0.00 0.00 53 1009.3
20260510075108 43 232 0.0 0.0 0.00 0.00 0.00 52 1009.1
20260510074107 44 226 1.0 1.0 0.00 0.00 0.00 51 1008.7
20260510073107 45 323 1.0 2.0 0.00 0.00 0.00 50 1008.7
20260510072108 45 99 1.0 1.0 0.00 0.00 0.00 49 1008.6
20260510071107 46 289 2.0 3.0 0.00 0.00 0.00 49 1008.5
20260510070107 46 345 1.0 2.0 0.00 0.00 0.00 47 1008.4
20260510065107 46 356 2.0 2.0 0.00 0.00 0.00 47 1008.1
20260510064108 46 341 2.0 2.0 0.00 0.00 0.00 46 1008.1
20260510063107 46 252 2.0 4.0 0.00 0.00 0.00 46 1008.1
20260510061107 47 278 2.0 2.0 0.00 0.00 0.00 46 1007.9
20260510060107 46 270 1.0 2.0 0.00 0.00 0.00 46 1007.8
20260510054107 47 255 2.0 3.0 0.00 0.00 0.00 45 1007.6
20260510053108 47 279 1.0 1.0 0.00 0.00 0.00 45 1007.6
20260510051108 48 270 2.0 2.0 0.00 0.00 0.00 44 1007.3
20260510045107 49 293 2.0 3.0 0.00 0.00 0.00 42 1006.8
20260510043107 50 247 1.0 2.0 0.00 0.00 0.00 41 1006.7
20260510042108 50 310 4.0 6.0 0.00 0.00 0.00 41 1006.7
20260510041107 50 295 2.0 2.0 0.00 0.00 0.00 41 1006.7
20260510040107 51 292 1.0 2.0 0.00 0.00 0.00 40 1006.6
20260510035107 51 287 3.0 4.0 0.00 0.00 0.00 39 1006.4
20260510034107 52 271 2.0 2.0 0.00 0.00 0.00 39 1006.2
20260510033107 52 315 2.0 3.0 0.00 0.00 0.00 38 1006.1
20260510032107 53 340 2.0 2.0 0.00 0.00 0.00 38 1006.0
20260510031108 54 252 2.0 2.0 0.00 0.00 0.00 37 1005.8
20260510030107 55 262 2.0 4.0 0.00 0.00 0.00 36 1005.5
20260510025107 55 309 2.0 3.0 0.00 0.00 0.00 35 1005.6
20260510024108 56 299 3.0 5.0 0.00 0.00 0.00 35 1005.1
20260510023107 56 130 2.0 3.0 0.00 0.00 0.00 35 1005.0
20260510022107 57 100 2.0 3.0 0.00 0.00 0.00 35 1004.8
20260510021107 58 255 2.0 3.0 0.00 0.00 0.00 34 1004.5
20260510020108 58 261 5.0 7.0 0.00 0.00 0.00 34 1004.4
20260510015107 59 276 2.0 3.0 0.00 0.00 0.00 33 1004.2
20260510014108 60 259 1.0 2.0 0.00 0.00 0.00 33 1004.0
20260510013107 61 297 2.0 3.0 0.00 0.00 0.00 32 1003.7
20260510012107 62 230 4.0 7.0 0.00 0.00 0.00 31 1003.4
20260510011107 63 263 4.0 5.0 0.00 0.00 0.00 31 1003.4
20260510010108 64 292 5.0 7.0 0.00 0.00 0.00 30 1003.1
20260510005107 64 284 5.0 6.0 0.00 0.00 0.00 30 1003.1
20260510004107 65 66 5.0 10.0 0.00 0.00 0.00 29 1002.7
20260510003107 66 302 8.0 10.0 0.00 0.00 0.00 28 1002.6
20260510002108 68 75 6.0 7.0 0.00 0.00 0.00 28 1002.5
20260510001107 68 261 5.0 7.0 0.00 0.00 0.00 28 1002.3
20260510000107 69 264 12.0 15.0 0.00 0.00 0.00 27 1002.1
20260509234108 69 264 12.0 16.0 0.00 0.00 0.00 28 1001.9
20260509233107 69 259 6.0 8.0 0.00 0.00 0.00 29 1001.8
20260509232108 69 275 7.0 8.0 0.00 0.00 0.00 28 1001.8
20260509231107 69 109 7.0 8.0 0.00 0.00 0.00 29 1001.5
20260509230107 70 118 6.0 7.0 0.00 0.00 0.00 28 1001.5
20260509225107 72 270 3.0 4.0 0.00 0.00 0.00 29 1001.4
20260509224108 71 258 6.0 8.0 0.00 0.00 0.00 28 1001.3
20260509223107 70 276 9.0 13.0 0.00 0.00 0.00 28 1001.2
20260509222107 69 254 11.0 14.0 0.00 0.00 0.00 29 1001.1
20260509221107 70 271 8.0 10.0 0.00 0.00 0.00 30 1000.9
20260509220108 70 301 5.0 7.0 0.00 0.00 0.00 31 1000.8
20260509214107 70 282 8.0 10.0 0.00 0.00 0.00 30 1000.6
20260509211107 71 247 7.0 10.0 0.00 0.00 0.00 32 1000.6
20260509210108 70 274 6.0 10.0 0.00 0.00 0.00 33 1000.5
20260509205107 70 253 8.0 10.0 0.00 0.00 0.00 32 1000.5
20260509204107 71 124 7.0 9.0 0.00 0.00 0.00 33 1000.5
20260509203107 71 265 4.0 8.0 0.00 0.00 0.00 35 1000.4
20260509202108 70 257 11.0 13.0 0.00 0.00 0.00 36 1000.3
20260509201107 71 255 8.0 11.0 0.00 0.00 0.00 39 1000.4
20260509200107 71 247 5.0 7.0 0.00 0.00 0.00 42 1000.5
20260509195107 69 250 10.0 13.0 0.00 0.00 0.00 45 1000.6
20260509193107 68 250 8.0 10.0 0.00 0.00 0.00 46 1000.6
20260509192108 67 264 7.0 10.0 0.00 0.00 0.00 49 1000.5
20260509191107 67 274 5.0 8.0 0.00 0.00 0.00 49 1000.5
20260509190107 67 263 6.0 9.0 0.00 0.00 0.00 49 1000.3
20260509185107 67 95 8.0 10.0 0.00 0.00 0.00 49 1000.3
20260509184107 68 282 5.0 7.0 0.00 0.00 0.00 48 1000.1
20260509183108 67 230 6.0 9.0 0.00 0.00 0.00 48 1000.1
20260509182107 67 265 12.0 15.0 0.00 0.00 0.00 48 1000.1
20260509181107 68 241 9.0 11.0 0.00 0.00 0.00 48 999.9
20260509180107 69 254 8.0 10.0 0.00 0.00 0.00 46 999.8
20260509175108 69 254 8.0 10.0 0.00 0.00 0.00 45 999.8
20260509174107 69 309 11.0 13.0 0.00 0.00 0.00 44 999.6
20260509173107 69 247 8.0 10.0 0.00 0.00 0.00 45 999.6
20260509172108 69 256 7.0 8.0 0.00 0.00 0.00 42 999.4
20260509170107 68 240 4.0 5.0 0.00 0.00 0.00 43 999.5
20260509164108 71 252 3.0 4.0 0.00 0.00 0.00 40 999.3
20260509161108 68 254 3.0 4.0 0.00 0.00 0.00 39 999.1
20260509160107 67 255 7.0 7.0 0.00 0.00 0.00 40 999.2
20260509155108 67 257 4.0 5.0 0.00 0.00 0.00 40 999.4
20260509154107 68 267 5.0 7.0 0.00 0.00 0.00 38 999.0
20260509153107 69 244 8.0 9.0 0.00 0.00 0.00 37 999.0
20260509152107 69 222 8.0 13.0 0.00 0.00 0.00 35 998.6
20260509151107 69 248 2.0 3.0 0.00 0.00 0.00 35 998.8
20260509150108 69 266 5.0 6.0 0.00 0.00 0.00 36 999.0
20260509145107 68 275 5.0 6.0 0.00 0.00 0.00 37 998.9
20260509144107 66 104 6.0 8.0 0.00 0.00 0.00 37 999.1
20260509143107 66 250 8.0 11.0 0.00 0.00 0.00 37 999.2
20260509142108 68 252 11.0 15.0 0.00 0.00 0.00 35 999.1
20260509140107 66 114 7.0 10.0 0.00 0.00 0.00 36 999.0
20260509134107 64 254 9.0 10.0 0.00 0.00 0.00 39 998.8
20260509133108 64 213 8.0 10.0 0.00 0.00 0.00 39 998.8
20260509131107 64 240 2.0 2.0 0.00 0.00 0.00 42 997.3